Regional Weather Roundup
Issued by NWS Wakefield, VA

Home | Current Version | Previous Version | Text Only | Print | Product List | Glossary Off
Versions: 1 2 3 4 5 6 7 8 9 10 11 12 13 14 15 16 17 18 19 20 21 22 23 24 25 26 27 28 29 30 31 32 33 34 35 36 37 38 39 40 41 42 43 44 45 46 47 48 49 50

000
ASUS41 KAKQ 291115
RWRAKQ

REGIONAL WEATHER ROUNDUP
NATIONAL WEATHER SERVICE WAKEFIELD VA
700 AM EDT FRI MAY 29 2015

Note: "fair" indicates few or no clouds below 12,000 feet with no
significant weather and/or obstructions to visibility. * = Denotes
station may not report precipitation (e.g., rain,snow,etc.),
thunder or fog.

VAZ042-051-052>054-056-291200-
NORTHERN VIRGINIA

CITY           SKY/WX    TMP DP  RH WIND       PRES   REMARKS
WASH NATIONAL  PTSUNNY   74  66  76 NE9       30.25R
DULLES         MOSUNNY   71  64  78 NE8       30.25R
FORT BELVOIR   CLOUDY    72  69  91 VRB5      30.24R
QUANTICO       CLOUDY    72  69  90 E8        30.24R
FREDERICKSBRG* FOG       69  69 100 N3        30.22R VSB<1/4
STAFFORD*      CLOUDY    70  68  95 NE3       30.27R FOG
WARRENTON      CLOUDY    69  69  98 N5        30.24R
CULPEPER*      CLOUDY    67  66  96 CALM      30.25R
MANASSAS*      CLOUDY    72  70  94 CALM      30.24R
LEESBURG*      SUNNY     68  61  77 N7        30.27R
WINCHESTER     CLOUDY    68  52  56 CALM      30.27R
FRONT ROYAL*   CLOUDY    64  61  88 CALM      30.26R
LURAY*         FAIR      63  63 100 CALM      30.26R FOG
$$

VAZ048-049-060>072-079>083-291200-
CENTRAL AND SOUTH CENTRAL VIRGINIA

CITY           SKY/WX    TMP DP  RH WIND       PRES   REMARKS
RICHMOND       MOSUNNY   69  65  86 SE5       30.22R
CHESTERFIELD*  NOT AVBL
PETERSBURG*    SUNNY     67  67 100 CALM      30.24R
HANOVER        SUNNY     67  65  93 SE3       30.24R
TAPPAHANNOCK*  MOSUNNY   69  64  84 S3        30.24R
QUINTON*       FAIR      68  64  89 CALM      30.23R
CHARLOTTSVILLE MOSUNNY   64  62  93 CALM      30.24R
GORDONSVILLE*  FAIR      64  64  99 CALM      30.24R
ORANGE*        PTSUNNY   70  66  88 CALM      30.26R
LOUISA*        FOG       66  64  94 CALM      30.23R VSB 1/4
BUMPASS*       FAIR      66  65  95 CALM      30.23R
FARMVILLE*     MOSUNNY   65  65 100 CALM      30.22R FOG
CREWE*         PTSUNNY   65  64  95 CALM      30.23R
FORT PICKETT*  FAIR      66  65  97 CALM      30.23R
CHASE CITY*    FAIR      67  67 100 CALM      30.23R
CLARKSVILLE*   FAIR      66  64  94 CALM      30.22R
SOUTH HILL*    SUNNY     65  64  94 CALM      30.28R
LAWRENCEVILLE* FAIR      66  64  94 CALM      30.23R
EMPORIA*       PTSUNNY   64  63  94 CALM      30.25R
$$

VAZ088>098-291200-
SOUTHEAST VIRGINIA

CITY           SKY/WX    TMP DP  RH WIND       PRES   REMARKS
NORFOLK        MOSUNNY   71  64  78 S5        30.23R
VIRGINIA BEACH PTSUNNY   73  64  73 S3        30.23R
NORFOLK NAVAL  PTSUNNY   76  64  66 S5        30.25R
WEST POINT*    SUNNY     73  64  72 S6        30.25R
SALUDA*        FAIR      70  65  84 S3        30.23R
NEWPORT NEWS   MOSUNNY   75  65  70 S6        30.24R
LANGLEY AFB    MOSUNNY   70  65  86 S6        30.23R
FORT EUSTIS    MOSUNNY   72  65  78 S5        30.22R
WILLIAMSBURG*  SUNNY     73  66  78 S6        30.25R
HR EXEC AP*    PTSUNNY   68  63  83 CALM      30.25R
FRANKLIN*      MOSUNNY   68  63  86 CALM      30.24R
WAKEFIELD      SUNNY     68  64  87 S3        30.23R
$$

VAZ020-022-025-037-045-291200-
WEST CENTRAL AND SOUTHWEST VIRGINIA

CITY           SKY/WX    TMP DP  RH WIND       PRES   REMARKS
STAUNTON*      FOG       64  63  96 CALM      30.29R VSB<1/4
WAYNESBORO*    FAIR      62  61  98 CALM      30.27R
HOT SPRINGS VA CLOUDY    63  63  99 E5        30.34R
LYNCHBURG      SUNNY     65  64  97 CALM      30.26R
DANVILLE       CLEAR     65  62  90 CALM      30.24R
SOUTH BOSTON*  FAIR      61  59  95 CALM      30.23R
MARTINSVILLE   FOG       62  62 100 CALM      30.27R VSB 1/4
ROANOKE        PTCLDY    67  64  90 CALM      30.27R
BLACKSBURG     CLOUDY    62  61  97 CALM      30.32R FOG
DUBLIN*        MOCLDY    61  61 100 CALM      30.31R
MARION*        FOG       62  60  96 CALM      30.32R VSB<1/4
HILLSVILLE*    NOT AVBL
RICHLANDS*     CLOUDY    61  61  99 SE3       30.28R
WISE*          PTCLDY    61  61 100 CALM      30.28S
ABINGDON*      PTCLDY    65  63  91 E6        30.26R
$$

MDZ021>025-VAZ099-100-291200-
SOUTHERN MARYLAND AND THE DELMARVA PENINSULA

CITY           SKY/WX    TMP DP  RH WIND       PRES   REMARKS
PATUXENT RIVER MOSUNNY   70  69  97 SE5       30.23R
BAY BRIDGE APT NOT AVBL
LEONARDTOWN    SUNNY     68  66  94 CALM      30.25R
DOVER          MOSUNNY   69  63  81 NE16      30.24R
GEORGETOWN     CLOUDY    68  63  84 CALM      30.26R
EASTON         CLOUDY    73  73 100 E3        30.28R
CAMBRIDGE      MOSUNNY   72  68  88 CALM      30.24R
SALISBURY      CLOUDY    66  63  90 CALM      30.25R
OCEAN CITY     PTSUNNY   65  63  93 CALM      30.25R
WALLOPS ISLAND CLOUDY    66  65  96 S6        30.25R
ACCOMACK*      CLOUDY    70  66  88 S5        30.24R
$$

NCZ012>017-030>032-291200-
NORTH CENTRAL AND EASTERN NORTH CAROLINA

CITY           SKY/WX    TMP DP  RH WIND       PRES   REMARKS
ROANOKE RAPIDS PTSUNNY   64  63  94 CALM      30.24R
RALEIGH        MOSUNNY   68  64  87 S6        30.23R
ELIZABETH CITY SUNNY     67  66  97 CALM      30.24R
AHOSKIE*       MOSUNNY   65  63  90 CALM      30.24R
EDENTON*       SUNNY     65  63  94 CALM      30.23S
CURRITUCK*     SUNNY     67  64  90 CALM      30.25R
KILL DEVIL HLS   N/A     66  64  92 CALM      30.23R
MANTEO         SUNNY     65  64  95 CALM      30.24S
CAPE HATTERAS  MOSUNNY   73  64  73 NE5       30.23R
TARBORO*       FAIR      67  64  90 CALM      30.24R
GOLDSBORO      SUNNY     67  64  87 CALM      30.21R
WASHINGTON       N/A     64  62  93 CALM      30.24R
GREENVILLE     MOSUNNY   66  64  94 CALM      30.24R
NEW BERN       SUNNY     63  59  87 CALM      30.24R
WILMINGTON     SUNNY     64  61  90 NE3       30.21R
$$

VAZ048-291200-
ELSEWHERE

CITY           SKY/WX    TMP DP  RH WIND       PRES   REMARKS
HARRISBURG PA  SUNNY     65  55  70 CALM      30.29R
BALTIMORE      MOSUNNY   71  58  63 NE9       30.25R
ANNAPOLIS      CLOUDY    71  61  70 NE5       30.25R
ANDREWS AFB    PTSUNNY   69  69  99 NE5       30.24R
PHILADELPHIA   MOSUNNY   69  55  60 NE10      30.28R
HENDERSON NC   SUNNY     66  64  91 S5        30.24R
GREENSBORO     MOCLDY    68  66  94 SW7       30.23R
ROCKY MOUNT    SUNNY     68  65  90 CALM      30.24R
$$

VAZ100-291200-
MARINE

STATION/POSITION TIME  TEMP    WIND        PRES    WAVE   SWELL
                       AIR SEA DIR/SP/G            HT/PER HT/PER
                 (UTC) (F)     (DEG/KT/KT) (MB)    (FT/S) (FT/S)
BRANDYWINE LGT   1000   67 65   80/ 13/ 14 1024.4R
CAPE MAY NJ      1000   67 70   60/  7/ 11 1023.9R
LEWES DE         1000   66 64  170/  3/  4 1023.7R
15NM E FENWICK I 1050   64 63              1024.1R   3/ 9
OCEAN-CITY-INLET 1000   62 58  190/  6/  8 1023.3R
WACHAPREAGUE VA  1000   69 73  210/  4/  5 1023.5R
THOMAS POINT MD  1100   69 72   50/  9/ 11 1024.7R
GOOSES REEF MD   1100   71 71   90/  6/  8 1024.9R   1/ 3
COVE POINT MD    1000   70     100/  1/  2 1023.9R
SOLOMONS ISLAND  1000      70                N/A
BISHOPS HEAD MD  1000   72 75  180/  7/  8 1022.8R
PINEY POINT MD   1000          200/  4/  4   N/A
CAMBRIDGE MD     1000   71 75   90/  6/  7 1023.3R
LEWISETTA VA     1000   71 75              1022.7R
RAPPAHANNOCK LGT 1000          180/ 11/ 12 1023.7R
STINGRAY PT      1100   72 73  210/  8/ 10 1023.4R   1/ 2
YORK RVR RNG VA  1000   71     210/ 12/ 13 1022.4S
YORKTOWN VA      1000   70 72  180/  5/  6 1022.9R
JAMESTOWN VA     1100   70 77  160/  6/  8 1022.9R
DOMINION TERM VA 1000   70     170/  8/  9 1023.4R
KIPTOPEKE VA     1000      76  200/  8/  9   N/A
CHES BAY BRIDGE  1000   71 70  160/  5/  6 1022.9S
CAPE HENRY VA    1000   69     150/  3/  5 1022.2R
CHESAPEAKE LGHT  1000   69     200/  9/  9 1024.1R
WILLOUBY STN VA  1000   71     200/  4/  5 1024.0R
CAPE HENRY BUOY  1028      61                N/A     3/ 8
1ST LANDING BUOY 1100      71              1023.4R
CAPE CHARLES BUO 1026      68                N/A     3/ 9   3/ 9
OFFSHORE WE BUOY 1011      65                N/A     3/ 8   3/ 8
64NM E OF VA BCH 1050   67 65  110/  4/  6 1023.8R   3/ 8   3/ 8
DUCK PIER NC     1000   65 56  150/  3/  3 1022.7R
44100 DUCK FRF   1024      68                N/A     3/ 8
44056 DUCK FRF   1011      60                N/A     2/ 9
OREGON INLET NC  1000   68 77  350/  3/  4 1023.8R
HATTERAS NC      1000   74 76  340/  5/  6 1023.0R
DIAMOND SHLS NC  1050   76 76   40/  4/  8 1023.5R   4/ 9   3/ 9
CAPE LOOKOUT NC  1100   72      20/  5/  6 1022.9R
$$



USA.gov is the U.S. government's official web portal to all federal, state and local government web resources and services.